Simultaneous Nadir Overpasses (SNOs) Predictions

Prediction of SNOs between METOP-A and NOAA-19 Satellite Orbit:

Table of predicted SNOs for the next 14.0 days since TLE Epoch: 4/17/2020
Index Date (METOP-A) Time (METOP-A) Lat,Lon (METOP-A) SZA (METOP-A ) Date (NOAA-19) Time (NOAA-19) Lat,Lon (NOAA-19) SZA (NOAA-19 ) Distance(km) Time Diff (sec)
1 04/19/2020 06:45:04 -80.62, -85.41 110.41 04/19/2020 06:44:02 -80.57, -90.72 110.68 96.60 62
2 04/19/2020 07:35:52 80.43, 79.46 69.29 04/19/2020 07:34:56 80.44, 79.58 69.29 2.54 56
3 04/19/2020 08:26:32 -80.43,-113.15 110.72 04/19/2020 08:25:53 -80.44,-113.23 110.72 1.81 39
4 04/19/2020 09:17:12 80.44, 54.31 69.28 04/19/2020 09:16:55 80.43, 54.30 69.27 1.76 17
5 04/19/2020 10:07:54 -80.42,-138.62 110.76 04/19/2020 10:07:53 -80.43,-138.51 110.75 2.29 1
6 04/19/2020 10:58:34 80.43, 28.84 69.24 04/19/2020 10:58:56 80.43, 28.68 69.24 2.83 22
7 04/19/2020 11:49:15 -80.44,-163.77 110.76 04/19/2020 11:49:53 -80.42,-163.80 110.78 1.91 38
8 04/19/2020 12:39:56 80.42, 3.36 69.20 04/19/2020 12:40:56 80.42, 3.40 69.22 0.76 60
9 04/19/2020 13:30:40 -80.34, 169.81 110.92 04/19/2020 13:31:51 -80.37, 171.59 110.81 33.38 71
10 04/30/2020 07:58:34 -80.45,-106.11 114.25 04/30/2020 07:57:27 -80.47,-106.24 114.25 2.86 67
11 04/30/2020 08:49:14 80.45, 61.24 65.75 04/30/2020 08:48:31 80.45, 61.28 65.74 0.73 43
12 04/30/2020 09:39:56 -80.44,-131.58 114.28 04/30/2020 09:39:27 -80.46,-131.52 114.27 2.07 29
13 04/30/2020 10:30:36 80.44, 35.76 65.71 04/30/2020 10:30:32 80.46, 35.65 65.72 2.79 4
14 04/30/2020 11:21:17 -80.46,-156.74 114.28 04/30/2020 11:21:27 -80.45,-156.81 114.29 1.76 10
15 04/30/2020 12:11:58 80.43, 10.29 65.67 04/30/2020 12:12:32 80.45, 10.37 65.70 2.46 34
16 04/30/2020 13:02:39 -80.45, 177.79 114.32 04/30/2020 13:03:27 -80.44, 177.91 114.32 2.40 48




NCC Satellite Simultaneous Nadir Overpasses (SNOs) Prediction Service
